Location: Dayton
(39.7590°N, 84.1920°W)
Time: 12:19:36
(UTC-05:00)

Daily predictions for brighter satellites

Satellite Brightness Start Highest point End
(mag) Time Altitude Azimuth Time Altitude Azimuth Time Altitude Azimuth
CENTAUR R/B 4.2 18:39:29 10° NW 18:47:10 53° WSW 18:55:12 10° S
Resurs 01 Rocket 3.1 18:46:47 10° ESE 18:49:42 18° ENE 18:52:36 10° NNE
Cosmos 1300 Rocket 4.5 18:46:37 10° SSE 18:50:21 28° E 18:54:07 10° NNE
Cosmos 2292 Rocket 4.4 18:48:21 10° SSE 18:53:18 55° E 18:59:56 10° NNE
Cosmos 1190 Rocket 4.2 18:48:08 10° SSW 18:53:18 78° WNW 18:58:32 10° NNE
Abrixas rocket 4.3 18:52:55 10° SSE 18:54:42 14° SE 18:56:29 10° ESE
Cosmos 1833 4.4 18:49:41 10° S 18:55:11 51° ESE 19:00:39 10° NNE
COSMO-SKYMED 1 2.9 18:51:53 10° N 18:56:14 74° WNW 19:00:33 10° SSW
ALOS 3.1 18:53:33 10° SE 18:57:31 29° ENE 19:01:31 10° N
Cosmos 2181 Rocket 4.4 18:52:38 10° N 18:58:32 43° ENE 19:04:30 10° SSE
Cosmos 2333 Rocket 4.1 18:59:57 10° NNE 19:01:49 11° NE 19:03:39 10° ENE
Spot 2 Rocket 4.5 18:57:55 10° ESE 19:02:01 26° ENE 19:06:09 10° NNE
SL-16 R/B 2.6 18:58:32 10° NNW 19:04:11 69° WSW 19:09:47 10° SSE
FREGAT/IRIS 3.0 19:02:10 10° SE 19:05:04 40° ENE 19:08:00 10° N
Cosmos 1340 2.9 19:03:17 10° N 19:06:59 47° ENE 19:10:37 10° SSE
Cosmos 1709 Rocket 3.9 19:06:25 10° S 19:12:36 71° E 19:18:44 10° NNE
Helios 1B rocket 3.9 19:18:13 16° E 19:18:47 16° E 19:21:27 10° SE
FengYun 1-2 T 4.4 19:14:19 10° SE 19:19:34 48° ENE 19:24:50 10° N
Cosmos 1954 Rocket 4.0 19:14:51 10° SSW 19:20:02 86° ESE 19:25:18 10° NNE
Cosmos 2322 Rocket 3.3 19:15:09 10° NW 19:20:32 48° WSW 19:25:53 10° S
HJ-1C 3.7 19:19:01 10° SE 19:22:13 41° ENE 19:25:25 10° N
SJ-6B 2.7 19:19:33 10° SSE 19:23:33 78° ENE 19:27:29 10° N
Tiangong 2 2.5 19:21:02 10° W 19:23:51 32° SSW 19:26:31 11° SE
Cosmos 2151 Rocket 4.4 19:19:42 10° SSW 19:24:07 57° W 19:28:36 10° N
Okean 1 Rocket 3.2 19:20:43 10° SSE 19:25:03 51° E 19:29:24 10° NNE
Genesis I 4.1 19:22:50 10° NNW 19:26:22 30° NE 19:28:05 22° E
FENGYUN 3A 3.7 19:22:04 10° SSE 19:27:21 58° ENE 19:32:41 10° N
TSX-5 4.2 19:24:51 10° SW 19:27:56 48° WNW 19:31:06 10° NNE
Meteor 1-19 Rocket 4.2 19:23:13 10° N 19:28:53 67° E 19:34:37 10° SSE
NOSS 8 (F) 4.4 19:27:04 10° SSW 19:30:35 78° ESE 19:33:49 12° NE
Gbstr 26 Del rocket 2.5 19:30:42 10° SW 19:34:33 87° SE 19:36:53 22° NE
Cosmos 2322 3.6 19:31:12 10° NNW 19:36:57 77° ENE 19:42:39 10° SSE
Cosmos 1238 Rocket 2.1 19:35:07 10° N 19:38:05 79° W 19:41:04 10° S
Cosmos 2285 Rocket 4.5 19:38:20 10° N 19:44:20 39° ENE 19:47:50 22° ESE
CZ-2D R/B 3.6 19:43:32 29° ESE 19:44:50 40° ENE 19:48:26 10° N
GPS 2-04 Rocket1 3.9 19:41:19 10° SW 19:45:09 32° SSE 19:46:29 26° SE
Cosmos 1025 Rocket 3.3 19:41:32 10° N 19:45:44 43° ENE 19:48:41 18° SE
GEOS 3 Rocket 3.5 19:40:34 10° NE 19:45:49 78° SE 19:51:07 10° SSW
Meteor 1-13 Rocket 4.4 19:40:21 10° NNW 19:45:54 76° W 19:51:32 10° S
H-2A R/B 2.5 19:46:25 10° SSE 19:50:05 64° ENE 19:53:48 10° N
Cosmos 1536 2.7 19:46:43 10° S 19:50:41 83° E 19:54:41 10° N
Okean 1-7 Rocket 3.5 19:47:27 10° N 19:51:59 71° E 19:56:27 10° SSE
COSMOS 2428 2.8 19:46:42 10° NNW 19:52:17 54° ENE 19:55:38 24° SE
Cosmos 2237 4.1 19:46:51 10° NNW 19:52:35 69° ENE 19:57:28 14° SSE
SL-19 R/B 4.3 19:46:59 10° SSE 19:52:37 82° ENE 19:58:39 10° NNW
Meteor 1-23 Rocket 4.2 19:46:53 10° N 19:52:38 62° ENE 19:58:18 10° SSE
Cosmos 2333 4.4 19:48:06 10° NNW 19:53:38 49° ENE 19:56:21 28° ESE
Meteor 2-4 Rocket 3.5 19:49:25 10° N 19:55:00 80° E 20:00:23 10° SSE
Cosmos 1633 4.2 19:51:45 10° SSW 19:55:12 37° WNW 19:58:40 10° N
Cosmos 2237 Rocket 3.5 19:51:50 10° N 19:55:53 21° NE 19:55:53 21° NE
SL-08 ROCKET BODY 4.3 19:51:36 10° S 19:57:44 77° E 20:03:57 10° N
Cosmos 1741 Rocket 4.0 19:58:19 10° SSW 20:03:33 84° WNW 20:08:48 10° NNE
NOSS 0 Rocket 4.4 20:02:10 10° N 20:07:48 36° ENE 20:08:24 35° ENE
Cosmos 2360 Rocket 3.1 20:05:56 10° NW 20:11:21 48° WSW 20:16:45 10° S
Cosmos 2219 3.2 20:06:11 10° SSW 20:11:57 87° WNW 20:17:44 10° NNE
Cosmos 2219 Rocket 2.4 20:07:55 10° N 20:13:17 44° ENE 20:13:35 44° ENE
Cosmos 1570 Rocket 4.2 20:14:47 10° NNW 20:19:59 68° WSW 20:24:15 15° S
BREEZE-M DEB (TANK) 3.6 20:21:16 10° WSW 20:23:46 37° W 20:23:46 37° W
Resurs 01 Rocket 2.8 20:21:39 10° S 20:25:49 42° W 20:30:02 10° NNW
SL-16 R/B 4.2 20:25:46 10° N 20:27:20 14° NNE 20:27:20 14° NNE
Abrixas rocket 4.1 20:27:50 10° WSW 20:29:39 29° WSW 20:29:39 29° WSW
Spot 1 4.2 20:31:44 63° WSW 20:31:56 64° WSW 20:36:02 10° NNW
Cosmos 1610 Rocket 4.4 20:26:15 10° S 20:32:30 88° E 20:38:42 10° N
ATLAS CENTAUR R/B 3.6 20:28:53 10° SW 20:30:46 21° SSW 20:30:46 21° SSW
BREEZE-M DEB (TANK) 3.9 20:29:29 10° NW 20:33:12 78° NE 20:35:01 51° ESE
ALOS 4.3 20:30:55 10° SSW 20:34:54 27° W 20:38:53 10° NW
Cosmos 468 Rocket 4.4 20:35:21 10° NNW 20:39:27 52° NNE 20:39:27 52° NNE
Helios 1A 3.6 20:40:56 53° W 20:40:56 53° W 20:45:01 10° NNW
Cosmos 2333 Rocket 2.4 20:41:26 10° NNW 20:46:14 58° NNE 20:46:14 58° NNE
USA 229 DEB 3.8 20:45:53 10° NW 20:53:03 81° WSW 20:54:32 60° SSE
USA 229 3.8 20:45:59 10° NW 20:53:09 81° WSW 20:54:36 60° SSE
Helios 1B rocket 3.8 20:50:23 10° N 20:54:33 37° W 20:58:04 10° SW
Cosmos 1980 4.4 20:49:20 10° NNW 20:53:09 42° N 20:53:09 42° N
Envisat 3.9 20:58:42 43° NNW 20:58:42 43° NNW 21:02:06 10° NNW
NOSS 3-1 (A) 4.4 20:58:26 10° NNW 21:04:58 48° NNE 21:04:58 48° NNE
ATLAS 2AS CENTAUR R/B 4.5 21:04:47 10° NNW 21:10:18 22° NNE 21:10:18 22° NNE
BREEZE-M DEB (TANK) 4.3 21:15:05 10° WNW 21:17:20 36° WSW 21:17:20 36° WSW
Nadezhda 3 Rocket 4.5 21:15:39 10° NNW 21:21:26 55° W 21:21:26 55° W
NOSS 3-1 (C) 4.1 21:17:49 10° NNW 21:24:23 67° N 21:24:23 67° N
Cosmos 2237 Rocket 3.9 21:34:58 10° NNW 21:37:44 29° NW 21:37:44 29° NW
Cosmos 2219 Rocket 4.3 21:52:30 10° NW 21:55:22 22° WNW 21:55:22 22° WNW
